HG5PBP-13 Weather Reports


time (UTC)temp
C
wind
direction
speed
KPH
gust
KPH
rain 1hr
cm
rain 24hr
cm
rain mn
cm
humidity
%
barometer
mb
20260506102925 20 205 4.8 24.1 0.00 0.00 0.00 5 1008.9
20260506102425 19 130 4.8 22.5 0.00 0.00 0.00 5 1009.0
20260506101925 19 171 4.8 22.5 0.00 0.00 0.00 5 1009.1
20260506101425 18 324 8.0 19.3 0.00 0.00 0.00 6 1008.9
20260506100925 18 104 11.3 17.7 0.00 0.00 0.00 6 1009.0
20260506100425 18 229 11.3 24.1 0.00 0.00 0.00 6 1009.1
20260506095925 18 179 6.4 12.9 0.00 0.00 0.00 6 1009.2
20260506095425 18 188 12.9 29.0 0.00 0.00 0.00 6 1009.4
20260506094924 18 222 9.7 16.1 0.00 0.00 0.00 6 1009.0
20260506094425 18 143 9.7 27.4 0.00 0.00 0.00 6 1009.2
20260506093924 17 203 8.0 19.3 0.00 0.00 0.00 6 1009.2
20260506093424 17 189 16.1 19.3 0.00 0.00 0.00 6 1009.3
20260506092924 17 245 6.4 16.1 0.00 0.00 0.00 6 1009.0
20260506092424 17 208 4.8 16.1 0.00 0.00 0.00 6 1009.0
20260506091924 17 204 11.3 35.4 0.00 0.00 0.00 6 1009.3
20260506091424 17 156 16.1 29.0 0.00 0.00 0.00 6 1009.2
20260506090924 17 191 16.1 22.5 0.00 0.00 0.00 6 1009.2
20260506090424 17 313 8.0 22.5 0.00 0.00 0.00 6 1009.2
20260506085924 17 209 6.4 16.1 0.00 0.00 0.00 6 1009.2
20260506085424 17 162 9.7 17.7 0.00 0.00 0.00 6 1009.2
20260506084924 17 134 6.4 20.9 0.00 0.00 0.00 6 1009.1
20260506084424 17 173 11.3 30.6 0.00 0.00 0.00 6 1009.6
20260506083924 17 140 12.9 27.4 0.00 0.00 0.00 6 1009.2
20260506083424 17 188 8.0 17.7 0.00 0.00 0.00 6 1009.4
20260506082924 16 153 16.1 19.3 0.00 0.00 0.00 6 1009.2
20260506082424 16 149 12.9 19.3 0.00 0.00 0.00 6 1009.3
20260506081924 16 127 6.4 14.5 0.00 0.00 0.00 6 1009.3
20260506081424 16 114 3.2 14.5 0.00 0.00 0.00 6 1009.4
20260506080924 16 175 3.2 14.5 0.00 0.00 0.00 6 1009.5
20260506080424 16 148 12.9 17.7 0.00 0.00 0.00 6 1009.4
20260506073424 15 147 3.2 22.5 0.00 0.00 0.00 6 1009.7
20260506072924 15 207 6.4 8.0 0.00 0.00 0.00 6 1009.5
20260506072424 15 261 3.2 12.9 0.00 0.00 0.00 7 1009.6
20260506071924 14 276 4.8 14.5 0.00 0.00 0.00 7 1009.6
20260506071424 14 201 4.8 9.7 0.00 0.00 0.00 7 1009.7
20260506070923 14 157 4.8 9.7 0.00 0.00 0.00 7 1009.6
20260506070423 13 206 14.5 22.5 0.00 0.00 0.00 7 1009.6
20260506062423 12 243 8.0 17.7 0.00 0.00 0.00 7 1009.9
20260506061923 12 186 1.6 16.1 0.00 0.00 0.00 7 1009.9
20260506061423 12 215 11.3 17.7 0.00 0.00 0.00 7 1010.0
20260506060923 12 246 3.2 9.7 0.00 0.00 0.00 7 1009.7
20260506060423 12 182 3.2 12.9 0.00 0.00 0.00 7 1009.7
20260506050923 11 228 3.2 19.3 0.00 0.00 0.00 7 1009.9
20260506050423 11 207 1.6 14.5 0.00 0.00 0.00 7 1009.8
20260506044923 11 252 3.2 12.9 0.00 0.00 0.00 7 1009.5
20260506044423 11 255 6.4 8.0 0.00 0.00 0.00 7 1009.7
20260506043922 11 199 1.6 14.5 0.00 0.00 0.00 7 1009.8
20260506043422 11 243 8.0 12.9 0.00 0.00 0.00 7 1009.7
20260506042922 11 260 6.4 9.7 0.00 0.00 0.00 7 1009.4
20260506042422 11 266 3.2 9.7 0.00 0.00 0.00 7 1009.4
20260506041922 11 237 4.8 8.0 0.00 0.00 0.00 7 1009.5
20260506041422 11 167 1.6 9.7 0.00 0.00 0.00 7 1009.3
20260506040922 11 227 4.8 8.0 0.00 0.00 0.00 7 1009.4
20260506040422 11 222 4.8 12.9 0.00 0.00 0.00 7 1009.3
20260506035922 11 262 0.0 9.7 0.00 0.00 0.00 7 1009.4
20260506035422 10 229 4.8 8.0 0.00 0.00 0.00 7 1009.7
20260506034922 10 255 3.2 8.0 0.00 0.00 0.00 7 1009.4
20260506034422 11 251 3.2 6.4 0.00 0.00 0.00 7 1009.2
20260506033922 11 231 4.8 8.0 0.00 0.00 0.00 7 1009.7
20260506033422 11 228 1.6 9.7 0.00 0.00 0.00 7 1009.6
20260506032922 11 227 1.6 4.8 0.00 0.00 0.00 7 1009.1
20260506032422 11 272 4.8 6.4 0.00 0.00 0.00 7 1009.3
20260506031922 11 252 1.6 4.8 0.00 0.00 0.00 7 1009.3
20260506031422 11 225 1.6 6.4 0.00 0.00 0.00 7 1009.1
20260506030922 11 253 1.6 4.8 0.00 0.00 0.00 7 1009.2
20260506030422 11 246 4.8 6.4 0.00 0.00 0.00 7 1009.2
20260506025922 11 179 6.4 9.7 0.00 0.00 0.00 7 1009.0
20260506025422 11 215 3.2 9.7 0.00 0.00 0.00 7 1009.3
20260506024922 11 225 6.4 9.7 0.00 0.00 0.00 7 1009.0
20260506024422 11 240 3.2 6.4 0.00 0.00 0.00 7 1008.9
20260506023922 11 147 3.2 14.5 0.00 0.00 0.00 7 1009.1
20260506023422 11 235 1.6 6.4 0.00 0.00 0.00 7 1009.1
20260506022925 11 153 4.8 9.7 0.00 0.00 0.00 7 1009.1
20260506022422 11 128 4.8 9.7 0.00 0.00 0.00 7 1009.2
20260506021922 11 272 3.2 8.0 0.00 0.00 0.00 7 1009.3
20260506021422 11 228 3.2 9.7 0.00 0.00 0.00 7 1009.3
20260506020921 11 241 1.6 8.0 0.00 0.00 0.00 7 1009.3
20260506020422 12 216 1.6 9.7 0.00 0.00 0.00 7 1009.0
20260506015921 12 177 1.6 12.9 0.00 0.00 0.00 7 1009.0
20260506015421 12 226 3.2 6.4 0.00 0.00 0.00 7 1009.1
20260506014921 12 218 1.6 8.0 0.00 0.00 0.00 7 1009.2
20260506014421 12 180 6.4 8.0 0.00 0.00 0.00 7 1009.4
20260506013921 12 269 12.9 17.7 0.00 0.00 0.00 7 1009.5
20260506013421 12 227 6.4 16.1 0.00 0.00 0.00 7 1009.4
20260506012921 12 206 6.4 8.0 0.00 0.00 0.00 7 1009.4
20260506012421 12 251 3.2 6.4 0.00 0.00 0.00 7 1009.4
20260506011921 12 165 9.7 20.9 0.00 0.00 0.00 6 1009.3
20260506011421 12 247 9.7 14.5 0.00 0.00 0.00 6 1009.3
20260506010921 12 140 6.4 8.0 0.00 0.00 0.00 7 1009.3
20260506010421 12 229 12.9 19.3 0.00 0.00 0.00 6 1009.1
20260506005921 12 181 6.4 9.7 0.00 0.00 0.00 6 1009.3
20260506005421 12 224 8.0 9.7 0.00 0.00 0.00 6 1009.4
20260506004921 12 207 8.0 14.5 0.00 0.00 0.00 6 1009.1
20260506004421 12 235 6.4 16.1 0.00 0.00 0.00 6 1009.2
20260506003921 12 186 12.9 19.3 0.00 0.00 0.00 6 1009.3
20260506003421 12 180 9.7 16.1 0.00 0.00 0.00 6 1009.4
20260506002921 12 211 8.0 14.5 0.00 0.00 0.00 6 1009.4
20260506002421 12 173 6.4 12.9 0.00 0.00 0.00 6 1009.1
20260506001921 12 160 4.8 16.1 0.00 0.00 0.00 6 1009.2
20260506001426 12 242 4.8 12.9 0.00 0.00 0.00 6 1009.0
20260506000921 13 219 3.2 19.3 0.00 0.00 0.00 6 1009.1
20260506000423 13 223 8.0 20.9 0.00 0.00 0.00 6 1009.3
20260505235921 13 204 9.7 16.1 0.00 0.00 0.00 6 1009.2
20260505235421 13 296 11.3 16.1 0.00 0.00 0.00 6 1009.5
20260505234921 13 222 6.4 12.9 0.00 0.00 0.00 6 1009.4
20260505234420 13 234 11.3 16.1 0.00 0.00 0.00 6 1009.7
20260505233921 13 163 6.4 16.1 0.00 0.00 0.00 6 1009.2
20260505233421 13 299 4.8 14.5 0.00 0.00 0.00 6 1009.6
20260505232920 13 172 3.2 24.1 0.00 0.00 0.00 6 1009.2
20260505232420 13 176 8.0 14.5 0.00 0.00 0.00 6 1009.5
20260505231920 13 152 9.7 16.1 0.00 0.00 0.00 6 1009.4
20260505231420 13 272 3.2 14.5 0.00 0.00 0.00 6 1009.3
20260505230920 13 258 4.8 14.5 0.00 0.00 0.00 6 1009.3
20260505230420 13 239 4.8 14.5 0.00 0.00 0.00 6 1009.5
20260505225920 13 237 4.8 14.5 0.00 0.00 0.00 6 1009.4
20260505225420 13 270 6.4 12.9 0.00 0.00 0.00 6 1009.6
20260505224920 13 250 3.2 12.9 0.00 0.00 0.00 6 1009.4
20260505224420 14 52 1.6 16.1 0.00 0.00 0.00 6 1009.4
20260505223920 14 280 11.3 14.5 0.00 0.00 0.00 6 1009.2
20260505223420 14 263 8.0 14.5 0.00 0.00 0.00 6 1009.4
20260505222920 14 265 8.0 14.5 0.00 0.00 0.00 6 1009.4
20260505222420 14 279 1.6 16.1 0.00 0.00 0.00 6 1009.2
20260505221920 14 216 9.7 16.1 0.00 0.00 0.00 6 1009.4
20260505221420 14 256 4.8 14.5 0.00 0.00 0.00 6 1009.2
20260505220920 14 179 3.2 14.5 0.00 0.00 0.00 6 1009.2
20260505220420 14 168 3.2 12.9 0.00 0.00 0.00 6 1009.4
20260505215920 14 192 3.2 12.9 0.00 0.00 0.00 6 1009.5
20260505215420 14 37 4.8 14.5 0.00 0.00 0.00 6 1009.1
20260505214920 14 233 8.0 16.1 0.00 0.00 0.00 6 1009.5
20260505214420 15 277 4.8 16.1 0.00 0.00 0.00 6 1009.4
20260505213920 15 234 3.2 9.7 0.00 0.00 0.00 6 1009.2
20260505213420 15 211 8.0 16.1 0.00 0.00 0.00 6 1009.4
20260505212920 15 262 6.4 24.1 0.00 0.00 0.00 6 1009.2
20260505212420 15 184 6.4 14.5 0.00 0.00 0.00 6 1009.3
20260505211920 15 247 11.3 19.3 0.00 0.00 0.00 6 1009.2
20260505211420 15 323 3.2 16.1 0.00 0.00 0.00 5 1009.3
20260505210920 15 247 4.8 20.9 0.00 0.00 0.00 6 1009.3
20260505210420 15 231 9.7 17.7 0.00 0.00 0.00 6 1009.0
20260505205919 15 257 6.4 17.7 0.00 0.00 0.00 6 1009.4
20260505205419 15 170 3.2 9.7 0.00 0.00 0.00 6 1009.3
20260505204919 15 243 4.8 12.9 0.00 0.00 0.00 5 1009.2
20260505204419 15 214 4.8 9.7 0.00 0.00 0.00 5 1009.7
20260505203919 15 255 4.8 17.7 0.00 0.00 0.00 5 1009.3
20260505203419 15 50 3.2 16.1 0.00 0.00 0.00 5 1009.6
20260505202919 15 259 3.2 16.1 0.00 0.00 0.00 5 1009.3
20260505202419 15 233 4.8 17.7 0.00 0.00 0.00 5 1009.3
20260505201919 15 227 8.0 17.7 0.00 0.00 0.00 5 1009.2
20260505201420 15 261 4.8 22.5 0.00 0.00 0.00 5 1009.3
20260505200919 15 304 8.0 20.9 0.00 0.00 0.00 5 1009.3
20260505200419 15 213 9.7 19.3 0.00 0.00 0.00 5 1009.1
20260505195919 16 234 6.4 20.9 0.00 0.00 0.00 5 1009.0
20260505195419 16 195 11.3 19.3 0.00 0.00 0.00 5 1009.3
20260505194919 16 281 9.7 19.3 0.00 0.00 0.00 5 1009.3
20260505194419 16 217 6.4 20.9 0.00 0.00 0.00 5 1009.1
20260505193919 16 283 6.4 24.1 0.00 0.00 0.00 5 1008.9
20260505193419 16 273 9.7 27.4 0.00 0.00 0.00 5 1008.9
20260505192919 16 258 3.2 19.3 0.00 0.00 0.00 5 1008.9
20260505192419 16 247 9.7 27.4 0.00 0.00 0.00 5 1009.1
20260505191919 16 234 6.4 17.7 0.00 0.00 0.00 5 1009.1
20260505191419 16 292 4.8 19.3 0.00 0.00 0.00 5 1009.2
20260505190919 17 264 9.7 19.3 0.00 0.00 0.00 5 1009.0
20260505190419 17 290 12.9 19.3 0.00 0.00 0.00 5 1008.8
20260505185919 17 263 3.2 14.5 0.00 0.00 0.00 5 1008.9
20260505185419 17 241 12.9 19.3 0.00 0.00 0.00 4 1008.8
20260505184919 17 249 9.7 17.7 0.00 0.00 0.00 4 1008.9
20260505184419 17 244 6.4 19.3 0.00 0.00 0.00 4 1008.5
20260505183919 18 253 11.3 16.1 0.00 0.00 0.00 4 1008.3
20260505183420 18 289 6.4 17.7 0.00 0.00 0.00 4 1008.5
20260505182918 18 325 8.0 16.1 0.00 0.00 0.00 4 1008.3
20260505182418 18 282 3.2 16.1 0.00 0.00 0.00 4 1008.5
20260505181918 18 258 1.6 9.7 0.00 0.00 0.00 4 1008.3
20260505181418 18 270 4.8 17.7 0.00 0.00 0.00 4 1008.2
20260505180918 18 221 6.4 17.7 0.00 0.00 0.00 4 1008.3
20260505180418 18 340 3.2 9.7 0.00 0.00 0.00 4 1008.5
20260505175918 18 271 3.2 17.7 0.00 0.00 0.00 4 1008.2
20260505175418 18 326 4.8 17.7 0.00 0.00 0.00 4 1008.2
20260505174918 18 280 3.2 17.7 0.00 0.00 0.00 4 1008.4
20260505174418 19 265 9.7 16.1 0.00 0.00 0.00 4 1008.1
20260505173918 19 231 3.2 16.1 0.00 0.00 0.00 4 1008.1
20260505173418 19 265 3.2 6.4 0.00 0.00 0.00 4 1008.3
20260505172918 19 273 1.6 16.1 0.00 0.00 0.00 4 1008.3
20260505172418 20 275 8.0 9.7 0.00 0.00 0.00 4 1008.3
20260505171918 20 214 4.8 14.5 0.00 0.00 0.00 4 1008.1
20260505171418 20 266 4.8 14.5 0.00 0.00 0.00 4 1008.1
20260505170918 20 249 4.8 9.7 0.00 0.00 0.00 4 1008.1
20260505170418 20 239 6.4 12.9 0.00 0.00 0.00 4 1008.0
20260505165918 20 232 6.4 9.7 0.00 0.00 0.00 4 1007.9
20260505165418 21 248 11.3 20.9 0.00 0.00 0.00 3 1008.1
20260505164918 21 259 4.8 17.7 0.00 0.00 0.00 3 1008.0
20260505164418 21 293 11.3 32.2 0.00 0.00 0.00 3 1007.8
20260505163918 21 292 6.4 17.7 0.00 0.00 0.00 3 1007.9
20260505163418 21 191 4.8 17.7 0.00 0.00 0.00 3 1007.9
20260505162918 21 136 9.7 9.7 0.00 0.00 0.00 3 1007.8
20260505162418 22 222 6.4 9.7 0.00 0.00 0.00 3 1007.8
20260505161918 22 219 11.3 24.1 0.00 0.00 0.00 3 1007.5
20260505161418 22 223 6.4 19.3 0.00 0.00 0.00 3 1007.6
20260505160918 22 294 9.7 12.9 0.00 0.00 0.00 3 1007.7
20260505160417 22 285 6.4 9.7 0.00 0.00 0.00 3 1007.9
20260505152917 22 164 16.1 33.8 0.00 0.00 0.00 3 1007.8
20260505152417 22 206 9.7 27.4 0.00 0.00 0.00 3 1008.1
20260505151917 22 183 17.7 27.4 0.00 0.00 0.00 3 1007.9
20260505151417 22 149 12.9 27.4 0.00 0.00 0.00 3 1008.1
20260505150917 22 202 11.3 22.5 0.00 0.00 0.00 3 1008.1
20260505150417 22 180 4.8 24.1 0.00 0.00 0.00 3 1008.0
20260505140417 22 189 19.3 27.4 0.00 0.00 0.00 3 1009.0
20260505124916 23 224 12.9 41.8 0.00 0.00 0.00 3 1008.8
20260505124416 23 174 14.5 30.6 0.00 0.00 0.00 3 1008.7
20260505123916 23 153 32.2 57.9 0.00 0.00 0.00 3 1009.1
20260505123416 23 178 8.0 20.9 0.00 0.00 0.00 3 1009.0
20260505122916 23 343 6.4 24.1 0.00 0.00 0.00 3 1009.3
20260505122417 23 172 16.1 27.4 0.00 0.00 0.00 3 1009.2
20260505121916 23 149 17.7 33.8 0.00 0.00 0.00 3 1009.4
20260505121416 23 132 11.3 30.6 0.00 0.00 0.00 3 1009.2
20260505120916 23 176 14.5 41.8 0.00 0.00 0.00 3 1009.3
20260505120416 23 151 17.7 41.8 0.00 0.00 0.00 3 1009.0
20260505115916 23 215 22.5 33.8 0.00 0.00 0.00 3 1009.1
20260505115416 23 153 19.3 40.2 0.00 0.00 0.00 3 1009.7
20260505114916 22 179 19.3 41.8 0.00 0.00 0.00 3 1009.3
20260505114416 22 175 22.5 30.6 0.00 0.00 0.00 3 1009.8
20260505113916 22 219 9.7 29.0 0.00 0.00 0.00 3 1009.7
20260505113416 22 155 22.5 29.0 0.00 0.00 0.00 3 1009.9
20260505112916 22 134 11.3 24.1 0.00 0.00 0.00 3 1009.6
20260505112416 23 141 16.1 29.0 0.00 0.00 0.00 3 1009.6
20260505111916 23 149 17.7 37.0 0.00 0.00 0.00 3 1009.6
20260505111416 22 140 8.0 22.5 0.00 0.00 0.00 3 1009.8
20260505110916 22 201 19.3 54.7 0.00 0.00 0.00 3 1010.1
20260505110416 22 154 17.7 27.4 0.00 0.00 0.00 3 1009.6